Torna al catalogo

SL-3 DEB

AttivoPO
NORAD 19643·DEBRIS·🇷🇺 Russia

Lanciato Dec 23, 1978 da Plesetsk Cosmodrome

Loading…

Prossimi Passaggi (prossime 24 ore)

TLE

AggiornatoSource: Space-Track

Epoca: Sep 14, 2026, 06:40 UTC

1 19643U 78121C   26257.27827811  .00000026  00000-0  71560-5 0  9992
2 19643  81.2361  90.0419 0063604 301.1471 182.1472 14.15996200956131

Traccia SL-3 DEB in tempo reale con AllMySat

Download on the App Store